owner,sensor,date,latitude,longitude,vertical_datum,direction_of_sea_water_velocity,sea_water_speed,upward_sea_water_velocity,qcFlag 
TABS,ioos:station:wmo:42047:1,2002-09-01T00:00:00Z,27.8966,-93.5973,2.0,28.20177273,11.74414748,-99999.0,'11111222,11111222,99999999' 
TABS,ioos:station:wmo:42047:1,2002-09-01T00:30:00Z,27.8966,-93.5973,2.0,34.43911923,9.336401877,-99999.0,'11133222,11111222,99999999' 
TABS,ioos:station:wmo:42047:1,2002-09-01T01:00:00Z,27.8966,-93.5973,2.0,37.70508929,7.684816198,-99999.0,'11133222,11111222,99999999' 
TABS,ioos:station:wmo:42047:1,2002-09-01T01:30:00Z,27.8966,-93.5973,2.0,36.48909117,8.12217951,-99999.0,'11133222,11111222,99999999' 
TABS,ioos:station:wmo:42047:1,2002-09-01T02:00:00Z,27.8966,-93.5973,2.0,34.08729138,5.602606536,-99999.0,'11133222,11111222,99999999' 
TABS,ioos:station:wmo:42047:1,2002-09-01T02:30:00Z,27.8966,-93.5973,2.0,23.79196241,5.45344845,-99999.0,'11133222,11111222,99999999' 
TABS,ioos:station:wmo:42047:1,2002-09-01T03:00:00Z,27.8966,-93.5973,2.0,10.40347886,5.205573936,-99999.0,'11133222,11111222,99999999' 
TABS,ioos:station:wmo:42047:1,2002-09-01T03:30:00Z,27.8966,-93.5973,2.0,10.04480558,4.529426012,-99999.0,'11133222,11111222,99999999' 
TABS,ioos:station:wmo:42047:1,2002-09-01T04:00:00Z,27.8966,-93.5973,2.0,4.504551958,6.239270791,-99999.0,'11133222,11111222,99999999' 
TABS,ioos:station:wmo:42047:1,2002-09-01T04:30:00Z,27.8966,-93.5973,2.0,10.04221061,9.749358953,-99999.0,'11133222,11111222,99999999' 
TABS,ioos:station:wmo:42047:1,2002-09-01T05:00:00Z,27.8966,-93.5973,2.0,351.4991152,7.643984563,-99999.0,'11133222,11111222,99999999' 
TABS,ioos:station:wmo:42047:1,2002-09-01T05:30:00Z,27.8966,-93.5973,2.0,354.7019137,8.98840364,-99999.0,'11133222,11111222,99999999' 
TABS,ioos:station:wmo:42047:1,2002-09-01T06:00:00Z,27.8966,-93.5973,2.0,0.257370516,11.14011221,-99999.0,'11111222,11111222,99999999' 
TABS,ioos:station:wmo:42047:1,2002-09-01T06:30:00Z,27.8966,-93.5973,2.0,4.719447689,11.78997031,-99999.0,'11111222,11111222,99999999' 
TABS,ioos:station:wmo:42047:1,2002-09-01T07:00:00Z,27.8966,-93.5973,2.0,18.14182576,10.5020617,-99999.0,'11111222,11111222,99999999' 
TABS,ioos:station:wmo:42047:1,2002-09-01T07:30:00Z,27.8966,-93.5973,2.0,22.87511244,12.78551133,-99999.0,'11111222,11111222,99999999' 
TABS,ioos:station:wmo:42047:1,2002-09-01T08:00:00Z,27.8966,-93.5973,2.0,30.90050045,15.50005161,-99999.0,'11111222,11111222,99999999' 
TABS,ioos:station:wmo:42047:1,2002-09-01T08:30:00Z,27.8966,-93.5973,2.0,38.94921663,16.70299674,-99999.0,'11111222,11111222,99999999' 
TABS,ioos:station:wmo:42047:1,2002-09-01T09:00:00Z,27.8966,-93.5973,2.0,45.92332131,15.79881641,-99999.0,'11111222,11111222,99999999' 
TABS,ioos:station:wmo:42047:1,2002-09-01T09:30:00Z,27.8966,-93.5973,2.0,49.52038434,16.86746573,-99999.0,'11111222,11111222,99999999' 
TABS,ioos:station:wmo:42047:1,2002-09-01T10:00:00Z,27.8966,-93.5973,2.0,57.33993439,16.04729572,-99999.0,'11111222,11111222,99999999' 
TABS,ioos:station:wmo:42047:1,2002-09-01T10:30:00Z,27.8966,-93.5973,2.0,74.69283282,16.4018688,-99999.0,'11111222,11111222,99999999' 
TABS,ioos:station:wmo:42047:1,2002-09-01T11:00:00Z,27.8966,-93.5973,2.0,79.60860729,18.35098362,-99999.0,'11111222,11111222,99999999' 
TABS,ioos:station:wmo:42047:1,2002-09-01T11:30:00Z,27.8966,-93.5973,2.0,80.05262352,15.34061928,-99999.0,'11111222,11111222,99999999' 
TABS,ioos:station:wmo:42047:1,2002-09-01T12:00:00Z,27.8966,-93.5973,2.0,83.80296987,15.47040077,-99999.0,'11111222,11111222,99999999' 
TABS,ioos:station:wmo:42047:1,2002-09-01T12:30:00Z,27.8966,-93.5973,2.0,97.44330555,14.5122879,-99999.0,'11111222,11111222,99999999' 
TABS,ioos:station:wmo:42047:1,2002-09-01T13:00:00Z,27.8966,-93.5973,2.0,94.2102608,15.39153664,-99999.0,'11111222,11111222,99999999' 
TABS,ioos:station:wmo:42047:1,2002-09-01T13:30:00Z,27.8966,-93.5973,2.0,101.1109636,14.68526472,-99999.0,'11111222,11111222,99999999' 
TABS,ioos:station:wmo:42047:1,2002-09-01T14:00:00Z,27.8966,-93.5973,2.0,104.1465904,16.36633435,-99999.0,'11111222,11111222,99999999' 
TABS,ioos:station:wmo:42047:1,2002-09-01T14:30:00Z,27.8966,-93.5973,2.0,112.1862498,15.75660496,-99999.0,'11111222,11111222,99999999' 
TABS,ioos:station:wmo:42047:1,2002-09-01T15:00:00Z,27.8966,-93.5973,2.0,115.2936481,13.50470288,-99999.0,'11111222,11111222,99999999' 
TABS,ioos:station:wmo:42047:1,2002-09-01T15:30:00Z,27.8966,-93.5973,2.0,121.6806409,13.84273456,-99999.0,'11111222,11111222,99999999' 
TABS,ioos:station:wmo:42047:1,2002-09-01T16:00:00Z,27.8966,-93.5973,2.0,123.2224343,12.57547216,-99999.0,'11111222,11111222,99999999' 
TABS,ioos:station:wmo:42047:1,2002-09-01T16:30:00Z,27.8966,-93.5973,2.0,125.9304349,10.00334444,-99999.0,'11111222,11111222,99999999' 
TABS,ioos:station:wmo:42047:1,2002-09-01T17:00:00Z,27.8966,-93.5973,2.0,130.1507531,10.62341282,-99999.0,'11111222,11111222,99999999' 
TABS,ioos:station:wmo:42047:1,2002-09-01T17:30:00Z,27.8966,-93.5973,2.0,128.5267255,7.401094514,-99999.0,'11133222,11111222,99999999' 
TABS,ioos:station:wmo:42047:1,2002-09-01T18:00:00Z,27.8966,-93.5973,2.0,159.3305377,5.921123204,-99999.0,'11133222,11111222,99999999' 
TABS,ioos:station:wmo:42047:1,2002-09-01T18:30:00Z,27.8966,-93.5973,2.0,143.8985098,6.262563373,-99999.0,'11133222,11111222,99999999' 
TABS,ioos:station:wmo:42047:1,2002-09-01T19:00:00Z,27.8966,-93.5973,2.0,143.930464,6.012586798,-99999.0,'11133222,11111222,99999999' 
TABS,ioos:station:wmo:42047:1,2002-09-01T19:30:00Z,27.8966,-93.5973,2.0,143.5783527,5.87817999,-99999.0,'11133222,11111222,99999999' 
TABS,ioos:station:wmo:42047:1,2002-09-01T20:00:00Z,27.8966,-93.5973,2.0,154.1195764,4.490345198,-99999.0,'11133222,11111222,99999999' 
TABS,ioos:station:wmo:42047:1,2002-09-01T20:30:00Z,27.8966,-93.5973,2.0,83.61845439,1.529477035,-99999.0,'11133222,11111222,99999999' 
TABS,ioos:station:wmo:42047:1,2002-09-01T21:00:00Z,27.8966,-93.5973,2.0,219.8739262,4.273874121,-99999.0,'11133222,11111222,99999999' 
TABS,ioos:station:wmo:42047:1,2002-09-01T21:30:00Z,27.8966,-93.5973,2.0,181.6190232,2.831130516,-99999.0,'11133222,11111222,99999999' 
TABS,ioos:station:wmo:42047:1,2002-09-01T22:00:00Z,27.8966,-93.5973,2.0,169.5623386,0.772787163,-99999.0,'11133222,11111222,99999999' 
TABS,ioos:station:wmo:42047:1,2002-09-01T22:30:00Z,27.8966,-93.5973,2.0,289.8198461,2.094039159,-99999.0,'11133222,11111222,99999999' 
TABS,ioos:station:wmo:42047:1,2002-09-01T23:00:00Z,27.8966,-93.5973,2.0,352.1711523,0.807527089,-99999.0,'11133222,11111222,99999999' 
TABS,ioos:station:wmo:42047:1,2002-09-01T23:30:00Z,27.8966,-93.5973,2.0,344.835785,4.434410897,-99999.0,'11133222,11111222,99999999' 
TABS,ioos:station:wmo:42047:1,2002-09-02T00:00:00Z,27.8966,-93.5973,2.0,323.9962091,5.426619574,-99999.0,'11133222,11111222,99999999' 
TABS,ioos:station:wmo:42047:1,2002-09-02T00:30:00Z,27.8966,-93.5973,2.0,359.1932829,6.390633771,-99999.0,'11133222,11144222,99999999' 
TABS,ioos:station:wmo:42047:1,2002-09-02T01:00:00Z,27.8966,-93.5973,2.0,4.273501834,6.307535176,-99999.0,'11133222,11111222,99999999' 
TABS,ioos:station:wmo:42047:1,2002-09-02T01:30:00Z,27.8966,-93.5973,2.0,21.94310295,8.269038638,-99999.0,'11133222,11111222,99999999' 
TABS,ioos:station:wmo:42047:1,2002-09-02T02:00:00Z,27.8966,-93.5973,2.0,13.08184285,8.8804617,-99999.0,'11133222,11111222,99999999' 
TABS,ioos:station:wmo:42047:1,2002-09-02T02:30:00Z,27.8966,-93.5973,2.0,8.764051132,9.844942864,-99999.0,'11133222,11111222,99999999' 
TABS,ioos:station:wmo:42047:1,2002-09-02T03:00:00Z,27.8966,-93.5973,2.0,11.26415128,9.778353645,-99999.0,'11133222,11111222,99999999' 
TABS,ioos:station:wmo:42047:1,2002-09-02T03:30:00Z,27.8966,-93.5973,2.0,21.75582029,11.62824578,-99999.0,'11111222,11111222,99999999' 
TABS,ioos:station:wmo:42047:1,2002-09-02T04:00:00Z,27.8966,-93.5973,2.0,22.96468168,11.89252286,-99999.0,'11111222,11111222,99999999' 
TABS,ioos:station:wmo:42047:1,2002-09-02T04:30:00Z,27.8966,-93.5973,2.0,17.91345138,14.24032654,-99999.0,'11111222,11111222,99999999' 
TABS,ioos:station:wmo:42047:1,2002-09-02T05:00:00Z,27.8966,-93.5973,2.0,13.91002058,15.39134822,-99999.0,'11111222,11111222,99999999' 
TABS,ioos:station:wmo:42047:1,2002-09-02T05:30:00Z,27.8966,-93.5973,2.0,12.41499052,13.62868299,-99999.0,'11111222,11111222,99999999' 
TABS,ioos:station:wmo:42047:1,2002-09-02T06:00:00Z,27.8966,-93.5973,2.0,22.00937273,16.38400745,-99999.0,'11111222,11111222,99999999' 
TABS,ioos:station:wmo:42047:1,2002-09-02T06:30:00Z,27.8966,-93.5973,2.0,26.17060764,16.23423851,-99999.0,'11111222,11111222,99999999' 
TABS,ioos:station:wmo:42047:1,2002-09-02T07:00:00Z,27.8966,-93.5973,2.0,36.89967802,15.45600207,-99999.0,'11111222,11111222,99999999' 
TABS,ioos:station:wmo:42047:1,2002-09-02T07:30:00Z,27.8966,-93.5973,2.0,64.40436414,18.23998081,-99999.0,'11111222,11111222,99999999' 
TABS,ioos:station:wmo:42047:1,2002-09-02T08:00:00Z,27.8966,-93.5973,2.0,56.68164368,17.53166849,-99999.0,'11111222,11111222,99999999' 
TABS,ioos:station:wmo:42047:1,2002-09-02T08:30:00Z,27.8966,-93.5973,2.0,74.25053912,16.8734703,-99999.0,'11111222,11111222,99999999' 
TABS,ioos:station:wmo:42047:1,2002-09-02T09:00:00Z,27.8966,-93.5973,2.0,75.58019176,17.02638247,-99999.0,'11111222,11111222,99999999' 
TABS,ioos:station:wmo:42047:1,2002-09-02T09:30:00Z,27.8966,-93.5973,2.0,77.94729855,16.18682489,-99999.0,'11111222,11111222,99999999' 
TABS,ioos:station:wmo:42047:1,2002-09-02T10:00:00Z,27.8966,-93.5973,2.0,80.46651787,15.87931044,-99999.0,'11111222,11111222,99999999' 
TABS,ioos:station:wmo:42047:1,2002-09-02T10:30:00Z,27.8966,-93.5973,2.0,81.66087125,14.34163519,-99999.0,'11111222,11111222,99999999' 
TABS,ioos:station:wmo:42047:1,2002-09-02T11:00:00Z,27.8966,-93.5973,2.0,86.70468323,15.1350256,-99999.0,'11111222,11111222,99999999' 
TABS,ioos:station:wmo:42047:1,2002-09-02T11:30:00Z,27.8966,-93.5973,2.0,102.5718578,14.42587952,-99999.0,'11111222,11111222,99999999' 
TABS,ioos:station:wmo:42047:1,2002-09-02T12:00:00Z,27.8966,-93.5973,2.0,93.58107571,15.04938537,-99999.0,'11111222,11111222,99999999' 
TABS,ioos:station:wmo:42047:1,2002-09-02T12:30:00Z,27.8966,-93.5973,2.0,92.25941669,13.95084585,-99999.0,'11111222,11111222,99999999' 
TABS,ioos:station:wmo:42047:1,2002-09-02T13:00:00Z,27.8966,-93.5973,2.0,131.2361446,19.28196307,-99999.0,'11111222,11111222,99999999' 
TABS,ioos:station:wmo:42047:1,2002-09-02T13:30:00Z,27.8966,-93.5973,2.0,178.9530226,20.25337996,-99999.0,'11111222,11111222,99999999' 
TABS,ioos:station:wmo:42047:1,2002-09-02T14:00:00Z,27.8966,-93.5973,2.0,174.4360328,19.80329518,-99999.0,'11111222,11111222,99999999' 
TABS,ioos:station:wmo:42047:1,2002-09-02T14:30:00Z,27.8966,-93.5973,2.0,174.10174,19.46303162,-99999.0,'11111222,11111222,99999999' 
TABS,ioos:station:wmo:42047:1,2002-09-02T15:00:00Z,27.8966,-93.5973,2.0,179.7144234,18.07022413,-99999.0,'11111222,11111222,99999999' 
TABS,ioos:station:wmo:42047:1,2002-09-02T15:30:00Z,27.8966,-93.5973,2.0,171.2364839,15.2277674,-99999.0,'11111222,11111222,99999999' 
TABS,ioos:station:wmo:42047:1,2002-09-02T16:00:00Z,27.8966,-93.5973,2.0,179.5394512,16.18052224,-99999.0,'11111222,11111222,99999999' 
TABS,ioos:station:wmo:42047:1,2002-09-02T16:30:00Z,27.8966,-93.5973,2.0,182.3925487,17.48524521,-99999.0,'11111222,11111222,99999999' 
TABS,ioos:station:wmo:42047:1,2002-09-02T17:00:00Z,27.8966,-93.5973,2.0,175.2306646,17.31996536,-99999.0,'11111222,11111222,99999999' 
TABS,ioos:station:wmo:42047:1,2002-09-02T17:30:00Z,27.8966,-93.5973,2.0,191.9353642,20.11487012,-99999.0,'11111222,11111222,99999999' 
TABS,ioos:station:wmo:42047:1,2002-09-02T18:00:00Z,27.8966,-93.5973,2.0,194.368386,20.0677353,-99999.0,'11111222,11111222,99999999' 
TABS,ioos:station:wmo:42047:1,2002-09-02T18:30:00Z,27.8966,-93.5973,2.0,196.2477999,22.62360051,-99999.0,'11111222,11111222,99999999' 
TABS,ioos:station:wmo:42047:1,2002-09-02T19:00:00Z,27.8966,-93.5973,2.0,201.6475305,27.70398708,-99999.0,'11111222,11111222,99999999' 
TABS,ioos:station:wmo:42047:1,2002-09-02T19:30:00Z,27.8966,-93.5973,2.0,204.3425892,28.14195445,-99999.0,'11111222,11111222,99999999' 
TABS,ioos:station:wmo:42047:1,2002-09-02T20:00:00Z,27.8966,-93.5973,2.0,214.918184,28.72065633,-99999.0,'11111222,11111222,99999999' 
TABS,ioos:station:wmo:42047:1,2002-09-02T20:30:00Z,27.8966,-93.5973,2.0,223.3962674,29.31398301,-99999.0,'11111222,11111222,99999999' 
TABS,ioos:station:wmo:42047:1,2002-09-02T21:00:00Z,27.8966,-93.5973,2.0,231.3591379,32.49351474,-99999.0,'11111222,11111222,99999999' 
TABS,ioos:station:wmo:42047:1,2002-09-02T21:30:00Z,27.8966,-93.5973,2.0,227.8857896,33.28330663,-99999.0,'11111222,11111222,99999999' 
TABS,ioos:station:wmo:42047:1,2002-09-02T22:00:00Z,27.8966,-93.5973,2.0,228.2814175,35.94461434,-99999.0,'11111222,11111222,99999999' 
TABS,ioos:station:wmo:42047:1,2002-09-02T22:30:00Z,27.8966,-93.5973,2.0,233.2795118,40.55813852,-99999.0,'11111222,11111222,99999999' 
TABS,ioos:station:wmo:42047:1,2002-09-02T23:00:00Z,27.8966,-93.5973,2.0,238.869989,37.3131036,-99999.0,'11111222,11111222,99999999' 
TABS,ioos:station:wmo:42047:1,2002-09-02T23:30:00Z,27.8966,-93.5973,2.0,236.3863362,33.12949894,-99999.0,'11111222,11111222,99999999' 
TABS,ioos:station:wmo:42047:1,2002-09-03T00:00:00Z,27.8966,-93.5973,2.0,238.7629162,35.63609547,-99999.0,'11111222,11111222,99999999' 
TABS,ioos:station:wmo:42047:1,2002-09-03T00:30:00Z,27.8966,-93.5973,2.0,242.2917634,33.1853778,-99999.0,'11111222,11111222,99999999' 
TABS,ioos:station:wmo:42047:1,2002-09-03T01:00:00Z,27.8966,-93.5973,2.0,242.7220798,29.84934338,-99999.0,'11111222,11111222,99999999' 
TABS,ioos:station:wmo:42047:1,2002-09-03T01:30:00Z,27.8966,-93.5973,2.0,243.5057352,32.41406639,-99999.0,'11111222,11111222,99999999' 
TABS,ioos:station:wmo:42047:1,2002-09-03T02:00:00Z,27.8966,-93.5973,2.0,248.4702846,28.93908775,-99999.0,'11111222,11111222,99999999' 
TABS,ioos:station:wmo:42047:1,2002-09-03T02:30:00Z,27.8966,-93.5973,2.0,247.5672441,32.20709549,-99999.0,'11111222,11111222,99999999' 
TABS,ioos:station:wmo:42047:1,2002-09-03T03:00:00Z,27.8966,-93.5973,2.0,253.3089214,32.10250613,-99999.0,'11111222,11111222,99999999' 
TABS,ioos:station:wmo:42047:1,2002-09-03T03:30:00Z,27.8966,-93.5973,2.0,252.9302302,29.06009807,-99999.0,'11111222,11111222,99999999' 
TABS,ioos:station:wmo:42047:1,2002-09-03T04:00:00Z,27.8966,-93.5973,2.0,260.5270804,27.70780576,-99999.0,'11111222,11111222,99999999' 
TABS,ioos:station:wmo:42047:1,2002-09-03T04:30:00Z,27.8966,-93.5973,2.0,257.847515,27.21993755,-99999.0,'11111222,11111222,99999999' 
TABS,ioos:station:wmo:42047:1,2002-09-03T05:00:00Z,27.8966,-93.5973,2.0,264.2784747,27.08491277,-99999.0,'11111222,11111222,99999999' 
TABS,ioos:station:wmo:42047:1,2002-09-03T05:30:00Z,27.8966,-93.5973,2.0,262.4930765,26.63829011,-99999.0,'11111222,11111222,99999999' 
TABS,ioos:station:wmo:42047:1,2002-09-03T06:00:00Z,27.8966,-93.5973,2.0,265.4583578,20.9658198,-99999.0,'11111222,11111222,99999999' 
TABS,ioos:station:wmo:42047:1,2002-09-03T06:30:00Z,27.8966,-93.5973,2.0,276.6998749,19.37227916,-99999.0,'11111222,11111222,99999999' 
TABS,ioos:station:wmo:42047:1,2002-09-03T07:00:00Z,27.8966,-93.5973,2.0,271.2038164,20.47451587,-99999.0,'11111222,11111222,99999999' 
TABS,ioos:station:wmo:42047:1,2002-09-03T07:30:00Z,27.8966,-93.5973,2.0,274.3640884,13.80000362,-99999.0,'11111222,11111222,99999999' 
TABS,ioos:station:wmo:42047:1,2002-09-03T08:00:00Z,27.8966,-93.5973,2.0,275.0083811,15.57947368,-99999.0,'11111222,11111222,99999999' 
TABS,ioos:station:wmo:42047:1,2002-09-03T08:30:00Z,27.8966,-93.5973,2.0,273.9683298,12.13909799,-99999.0,'11111222,11111222,99999999' 
TABS,ioos:station:wmo:42047:1,2002-09-03T09:00:00Z,27.8966,-93.5973,2.0,268.2065618,11.5056334,-99999.0,'11111222,11111222,99999999' 
TABS,ioos:station:wmo:42047:1,2002-09-03T09:30:00Z,27.8966,-93.5973,2.0,265.5875398,9.879276289,-99999.0,'11133222,11111222,99999999' 
TABS,ioos:station:wmo:42047:1,2002-09-03T10:00:00Z,27.8966,-93.5973,2.0,266.1775742,4.800677036,-99999.0,'11133222,11111222,99999999' 
TABS,ioos:station:wmo:42047:1,2002-09-03T10:30:00Z,27.8966,-93.5973,2.0,188.8643922,3.309531689,-99999.0,'11133222,11111222,99999999' 
TABS,ioos:station:wmo:42047:1,2002-09-03T11:00:00Z,27.8966,-93.5973,2.0,187.7461365,2.745050091,-99999.0,'11133222,11111222,99999999' 
TABS,ioos:station:wmo:42047:1,2002-09-03T11:30:00Z,27.8966,-93.5973,2.0,203.9182729,3.97102002,-99999.0,'11133222,11111222,99999999' 
TABS,ioos:station:wmo:42047:1,2002-09-03T12:00:00Z,27.8966,-93.5973,2.0,202.6731114,6.589233643,-99999.0,'11133222,11111222,99999999' 
TABS,ioos:station:wmo:42047:1,2002-09-03T12:30:00Z,27.8966,-93.5973,2.0,179.6412483,7.990156444,-99999.0,'11133222,11111222,99999999' 
TABS,ioos:station:wmo:42047:1,2002-09-03T13:00:00Z,27.8966,-93.5973,2.0,170.1069265,6.344336057,-99999.0,'11133222,11111222,99999999' 
TABS,ioos:station:wmo:42047:1,2002-09-03T13:30:00Z,27.8966,-93.5973,2.0,160.7223615,4.301162634,-99999.0,'11133222,11111222,99999999' 
TABS,ioos:station:wmo:42047:1,2002-09-03T14:00:00Z,27.8966,-93.5973,2.0,154.1544786,8.189126938,-99999.0,'11133222,11111222,99999999' 
TABS,ioos:station:wmo:42047:1,2002-09-03T14:30:00Z,27.8966,-93.5973,2.0,151.266294,7.800519213,-99999.0,'11133222,11111222,99999999' 
TABS,ioos:station:wmo:42047:1,2002-09-03T15:00:00Z,27.8966,-93.5973,2.0,157.9544573,8.285801108,-99999.0,'11133222,11111222,99999999' 
TABS,ioos:station:wmo:42047:1,2002-09-03T15:30:00Z,27.8966,-93.5973,2.0,169.4129839,10.72252302,-99999.0,'11111222,11111222,99999999' 
TABS,ioos:station:wmo:42047:1,2002-09-03T16:00:00Z,27.8966,-93.5973,2.0,153.7815922,10.34423994,-99999.0,'11111222,11111222,99999999' 
TABS,ioos:station:wmo:42047:1,2002-09-03T16:30:00Z,27.8966,-93.5973,2.0,165.8479179,9.611706404,-99999.0,'11133222,11111222,99999999' 
TABS,ioos:station:wmo:42047:1,2002-09-03T17:00:00Z,27.8966,-93.5973,2.0,168.3800347,8.340941194,-99999.0,'11133222,11111222,99999999' 
TABS,ioos:station:wmo:42047:1,2002-09-03T17:30:00Z,27.8966,-93.5973,2.0,191.214678,8.278073447,-99999.0,'11133222,11111222,99999999' 
TABS,ioos:station:wmo:42047:1,2002-09-03T18:00:00Z,27.8966,-93.5973,2.0,168.5719307,7.621089161,-99999.0,'11133222,11111222,99999999' 
TABS,ioos:station:wmo:42047:1,2002-09-03T18:30:00Z,27.8966,-93.5973,2.0,184.0727905,6.476357001,-99999.0,'11133222,11111222,99999999' 
TABS,ioos:station:wmo:42047:1,2002-09-03T19:00:00Z,27.8966,-93.5973,2.0,219.4793804,7.203471385,-99999.0,'11133222,11111222,99999999' 
TABS,ioos:station:wmo:42047:1,2002-09-03T19:30:00Z,27.8966,-93.5973,2.0,238.6114905,7.872001016,-99999.0,'11133222,11111222,99999999' 
TABS,ioos:station:wmo:42047:1,2002-09-03T20:00:00Z,27.8966,-93.5973,2.0,235.3726273,11.70296544,-99999.0,'11111222,11111222,99999999' 
TABS,ioos:station:wmo:42047:1,2002-09-03T20:30:00Z,27.8966,-93.5973,2.0,252.3446402,10.22142847,-99999.0,'11111222,11111222,99999999' 
TABS,ioos:station:wmo:42047:1,2002-09-03T21:00:00Z,27.8966,-93.5973,2.0,271.123721,11.73225469,-99999.0,'11111222,11111222,99999999' 
TABS,ioos:station:wmo:42047:1,2002-09-03T21:30:00Z,27.8966,-93.5973,2.0,271.8951063,14.51793718,-99999.0,'11111222,11111222,99999999' 
TABS,ioos:station:wmo:42047:1,2002-09-03T22:00:00Z,27.8966,-93.5973,2.0,274.1681855,8.94365138,-99999.0,'11133222,11111222,99999999' 
TABS,ioos:station:wmo:42047:1,2002-09-03T22:30:00Z,27.8966,-93.5973,2.0,285.7622516,15.86660014,-99999.0,'11111222,11111222,99999999' 
TABS,ioos:station:wmo:42047:1,2002-09-03T23:00:00Z,27.8966,-93.5973,2.0,288.9636291,23.6643297,-99999.0,'11111222,11111222,99999999' 
TABS,ioos:station:wmo:42047:1,2002-09-03T23:30:00Z,27.8966,-93.5973,2.0,288.347315,20.58645186,-99999.0,'11111222,11111222,99999999' 
TABS,ioos:station:wmo:42047:1,2002-09-04T00:00:00Z,27.8966,-93.5973,2.0,288.7986094,20.94734828,-99999.0,'11111222,11111222,99999999' 
TABS,ioos:station:wmo:42047:1,2002-09-04T00:30:00Z,27.8966,-93.5973,2.0,291.5103685,22.63655451,-99999.0,'11111222,11111222,99999999' 
TABS,ioos:station:wmo:42047:1,2002-09-04T01:00:00Z,27.8966,-93.5973,2.0,295.3391557,22.15109027,-99999.0,'11111222,11111222,99999999' 
TABS,ioos:station:wmo:42047:1,2002-09-04T01:30:00Z,27.8966,-93.5973,2.0,297.2642359,23.46704285,-99999.0,'11111222,11111222,99999999' 
TABS,ioos:station:wmo:42047:1,2002-09-04T02:00:00Z,27.8966,-93.5973,2.0,309.9198753,21.24008004,-99999.0,'11111222,11111222,99999999' 
TABS,ioos:station:wmo:42047:1,2002-09-04T02:30:00Z,27.8966,-93.5973,2.0,310.5645441,20.11379626,-99999.0,'11111222,11111222,99999999' 
TABS,ioos:station:wmo:42047:1,2002-09-04T03:00:00Z,27.8966,-93.5973,2.0,306.0140259,21.54840597,-99999.0,'11111222,11111222,99999999' 
TABS,ioos:station:wmo:42047:1,2002-09-04T03:30:00Z,27.8966,-93.5973,2.0,314.8452954,26.13476229,-99999.0,'11111222,11111222,99999999' 
TABS,ioos:station:wmo:42047:1,2002-09-04T04:00:00Z,27.8966,-93.5973,2.0,313.9277659,32.86501027,-99999.0,'11111222,11111222,99999999' 
TABS,ioos:station:wmo:42047:1,2002-09-04T04:30:00Z,27.8966,-93.5973,2.0,316.3571662,31.35483535,-99999.0,'11111222,11111222,99999999' 
TABS,ioos:station:wmo:42047:1,2002-09-04T05:00:00Z,27.8966,-93.5973,2.0,315.1393518,32.05324477,-99999.0,'11111222,11111222,99999999' 
TABS,ioos:station:wmo:42047:1,2002-09-04T05:30:00Z,27.8966,-93.5973,2.0,320.1905144,34.78377927,-99999.0,'11111222,11111222,99999999' 
TABS,ioos:station:wmo:42047:1,2002-09-04T06:00:00Z,27.8966,-93.5973,2.0,315.9936439,33.85428924,-99999.0,'11111222,11111222,99999999' 
TABS,ioos:station:wmo:42047:1,2002-09-04T06:30:00Z,27.8966,-93.5973,2.0,319.9935482,31.35898595,-99999.0,'11111222,11111222,99999999' 
TABS,ioos:station:wmo:42047:1,2002-09-04T07:00:00Z,27.8966,-93.5973,2.0,318.1157089,32.78750067,-99999.0,'11111222,11111222,99999999' 
TABS,ioos:station:wmo:42047:1,2002-09-04T07:30:00Z,27.8966,-93.5973,2.0,317.1414651,29.90321053,-99999.0,'11111222,11111222,99999999' 
TABS,ioos:station:wmo:42047:1,2002-09-04T08:00:00Z,27.8966,-93.5973,2.0,316.3389489,29.36001533,-99999.0,'11111222,11111222,99999999' 
TABS,ioos:station:wmo:42047:1,2002-09-04T08:30:00Z,27.8966,-93.5973,2.0,316.5308594,28.59145677,-99999.0,'11111222,11111222,99999999' 
TABS,ioos:station:wmo:42047:1,2002-09-04T09:00:00Z,27.8966,-93.5973,2.0,324.2817589,22.09646126,-99999.0,'11111222,11111222,99999999' 
TABS,ioos:station:wmo:42047:1,2002-09-04T09:30:00Z,27.8966,-93.5973,2.0,327.9613991,21.75328021,-99999.0,'11111222,11111222,99999999' 
TABS,ioos:station:wmo:42047:1,2002-09-04T10:00:00Z,27.8966,-93.5973,2.0,327.5570477,14.14820483,-99999.0,'11111222,11111222,99999999' 
TABS,ioos:station:wmo:42047:1,2002-09-04T10:30:00Z,27.8966,-93.5973,2.0,337.4404086,12.48539146,-99999.0,'11111222,11111222,99999999' 
TABS,ioos:station:wmo:42047:1,2002-09-04T11:00:00Z,27.8966,-93.5973,2.0,339.5158701,11.23010686,-99999.0,'11111222,11111222,99999999' 
TABS,ioos:station:wmo:42047:1,2002-09-04T11:30:00Z,27.8966,-93.5973,2.0,330.4352197,12.64664382,-99999.0,'11111222,11111222,99999999' 
TABS,ioos:station:wmo:42047:1,2002-09-04T12:00:00Z,27.8966,-93.5973,2.0,347.9982966,12.50331556,-99999.0,'11111222,11111222,99999999' 
TABS,ioos:station:wmo:42047:1,2002-09-04T12:30:00Z,27.8966,-93.5973,2.0,337.286722,14.11463425,-99999.0,'11111222,11111222,99999999' 
TABS,ioos:station:wmo:42047:1,2002-09-04T13:00:00Z,27.8966,-93.5973,2.0,343.9094317,12.98885676,-99999.0,'11111222,11111222,99999999' 
TABS,ioos:station:wmo:42047:1,2002-09-04T13:30:00Z,27.8966,-93.5973,2.0,344.8442833,12.16305883,-99999.0,'11111222,11111222,99999999' 
TABS,ioos:station:wmo:42047:1,2002-09-04T14:00:00Z,27.8966,-93.5973,2.0,329.5570386,13.02585506,-99999.0,'11111222,11111222,99999999' 
TABS,ioos:station:wmo:42047:1,2002-09-04T14:30:00Z,27.8966,-93.5973,2.0,324.1891303,11.68999572,-99999.0,'11111222,11111222,99999999' 
TABS,ioos:station:wmo:42047:1,2002-09-04T15:00:00Z,27.8966,-93.5973,2.0,306.5264988,12.66822797,-99999.0,'11111222,11111222,99999999' 
TABS,ioos:station:wmo:42047:1,2002-09-04T15:30:00Z,27.8966,-93.5973,2.0,311.1248042,11.40342492,-99999.0,'11111222,11111222,99999999' 
TABS,ioos:station:wmo:42047:1,2002-09-04T16:00:00Z,27.8966,-93.5973,2.0,300.0121795,10.11638275,-99999.0,'11111222,11111222,99999999' 